This demonstration page uses our WeatherBlox Daily Observations layout. Learn more.

Left ArrowRight Arrow

Hourly Observations for January 5, 2022

Temp ( °F °C ) Dew Point ( °F °C ) Humidity (%) Winds ( mph kmh ) Pressure ( in mb ) Visibility ( mi km ) Precip ( " mm )
12:52 am 00:52 Mostly Clear 12 -11.1 0 -17.8 58 58 NW 25 41 30.02 1017 10 16 0.00 0.00
1:52 am 01:52 Clear 11 -11.7 -3 -19.4 53 53 NW 30 48 30.05 1018 10 16 0.00 0.00
2:52 am 02:52 Clear 10 -12.2 -1 -18.3 61 61 NW 18 30 30.07 1018 10 16 0.00 0.00
3:52 am 03:52 Mostly Clear 10 -12.2 -3 -19.4 55 55 NW 21 33 30.07 1018 10 16 0.00 0.00
4:52 am 04:52 Mostly Clear 9 -12.8 -2 -18.9 61 61 NW 20 31 30.07 1018 10 16 0.00 0.00
5:52 am 05:52 Clear 8 -13.3 -2 -18.9 63 63 NW 20 31 30.09 1019 10 16 0.00 0.00
6:52 am 06:52 Clear 7 -13.9 -5 -20.6 57 57 NW 25 41 30.11 1020 10 16 0.00 0.00
7:52 am 07:52 Mostly Sunny 5 -15 -8 -22.2 54 54 NW 28 44 30.12 1020 10 16 0.00 0.00
8:52 am 08:52 Partly Cloudy 6 -14.4 -8 -22.2 52 52 NW 21 33 30.16 1021 10 16 0.00 0.00
9:52 am 09:52 Mostly Sunny 8 -13.3 -7 -21.7 50 50 WNW 25 41 30.17 1022 10 16 0.00 0.00
10:52 am 10:52 Partly Cloudy 10 -12.2 -6 -21.1 48 48 NW 28 44 30.15 1021 10 16 0.00 0.00
11:52 am 11:52 Partly Cloudy 12 -11.1 -4 -20 48 48 NW 24 39 30.15 1021 10 16 0.00 0.00
12:52 pm 12:52 Partly Cloudy 14 -10 -4 -20 44 44 NW 18 30 30.16 1021 10 16 0.00 0.00
1:52 pm 13:52 Partly Cloudy 14 -10 -3 -19.4 47 47 NW 17 28 30.15 1021 10 16 0.00 0.00
2:52 pm 14:52 Mostly Cloudy 14 -10 -3 -19.4 47 47 NW 15 24 30.15 1021 10 16 0.00 0.00
3:52 pm 15:52 Mostly Cloudy 14 -10 -2 -18.9 49 49 NW 17 28 30.18 1022 10 16 0.00 0.00
4:52 pm 16:52 Mostly Cloudy 12 -11.1 -3 -19.4 51 51 NW 22 35 30.24 1024 10 16 0.00 0.00
5:52 pm 17:52 Mostly Cloudy 11 -11.7 -3 -19.4 53 53 NW 21 33 30.26 1025 10 16 0.00 0.00
6:52 pm 18:52 Mostly Cloudy 11 -11.7 -3 -19.4 53 53 NW 22 35 30.29 1026 10 16 0.00 0.00
7:52 pm 19:52 Mostly Cloudy 10 -12.2 -2 -18.9 58 58 NW 24 39 30.27 1025 10 16 0.00 0.00
8:52 pm 20:52 Mostly Cloudy 11 -11.7 -1 -18.3 58 58 NW 22 35 30.29 1026 10 16 0.00 0.00
9:52 pm 21:52 Mostly Cloudy 10 -12.2 -2 -18.9 58 58 NNW 16 26 30.32 1027 10 16 0.00 0.00
10:52 pm 22:52 Partly Cloudy 8 -13.3 -3 -19.4 60 60 NNW 22 35 30.33 1027 10 16 0.00 0.00
11:52 pm 23:52 Mostly Cloudy 7 -13.9 -4 -20 60 60 N 21 33 30.35 1028 10 16 0.00 0.00

Powered by AerisWeather